Regional Weather Roundup
Issued by NWS

Home | Current Version | Previous Version | Text Only | Print | Product List | Glossary Off
Versions: 1 2 3 4 5 6 7 8 9 10 11 12 13 14 15 16 17 18 19 20 21 22 23 24 25 26 27 28 29 30 31 32 33 34 35 36 37 38 39 40 41 42 43 44 45 46 47 48 49 50

000
ASUS43 KLOT 300212
RWRIL

ILLINOIS REGIONAL WEATHER ROUNDUP
NATIONAL WEATHER SERVICE CHICAGO/ROMEOVILLE IL
900 PM CDT THU SEP 29 2016

NOTE: "FAIR" INDICATES FEW OR NO CLOUDS BELOW 12,000 FEET WITH NO
SIGNIFICANT WEATHER AND/OR OBSTRUCTIONS TO VISIBILITY.

* THESE STATIONS ARE NOT UNDER NWS QUALITY CONTROL. THEY ALSO MAY NOT
  REPORT WEATHER SUCH AS PRECIPITATION OR FOG.

ILZ001-002-007-009-015-016-024-300300-
NORTHWEST ILLINOIS

CITY           SKY/WX    TMP DP  RH WIND       PRES   REMARKS
MOLINE         CLOUDY    66  53  63 NE6       30.26R
STERLING*      CLOUDY    63  55  75 N6        30.26S
SAVANNA*       CLEAR     61  54  78 N6        30.27S
$$

ILZ003-004-008-010-011-017-018-300300-
NORTH CENTRAL ILLINOIS

CITY           SKY/WX    TMP DP  RH WIND       PRES   REMARKS
ROCKFORD       MOCLDY    63  55  75 NE9       30.28F
FREEPORT*      CLEAR     58  53  81 N3        30.29S
ROCHELLE*      CLOUDY    62  55  78 NE12      30.26S
DE KALB*       CLOUDY    60  57  92 N9        30.25F
$$

ILZ005-006-012>014-019>023-300300-
NORTHEAST ILLINOIS

CITY           SKY/WX    TMP DP  RH WIND       PRES   REMARKS
CHICAGO-OHARE  LGT RAIN  63  57  81 NE15      30.22F
CHICAGO-MIDWAY CLOUDY    64  57  78 NE16      30.21F
AURORA         CLOUDY    62  58  86 N10       30.23S
LANSING*       CLOUDY    62  59  90 NE10G17   30.21S
JOLIET*        CLOUDY    64  59  82 NE10      30.22S
WAUKEGAN       CLOUDY    63  57  81 NE12G18   30.25S
DUPAGE AIRPORT CLOUDY    62  57  83 N10       30.23S
KANKAKEE*      CLOUDY    61  58  90 N9G16     30.19S
WHEELING       CLOUDY    63  57  81 NE12      30.25S
MORRIS*        LGT RAIN  62  58  88 CALM      30.21S
ROMEOVILLE*    RAIN      61  60  96 NE9       30.22R
NORTHERLY ISL    N/A     62  57  83 NE15        N/A
$$

LMZ740>746-300300-
SOUTHERN LAKE MICHIGAN

STATION/POSITION SKY/WX   TEMP    WIND        PRES    VSBY  WAVE
                          AIR SEA DIR/SP/G                  HT/PER
                          (F)     (DEG/KT/KT) (MB)    (MI)  (FT/S)
SOUTHERN BUOY              63 68   60/ 19/ 23 1023.5R         6/ 6
WILMETTE HARBOR            62 56   70/ 14/ 17   N/A           7/ 6
HARRISON CRIB              64      50/ 21/ 22   N/A
BURNHAM HARBOR             62      40/ 12/ 19   N/A
CALUMET HARBOR             63      30/ 13/ 17 1022.5F
BURNS HARBOR               62      50/ 18/ 21 1022.7S
MICHIGAN CITY              61      20/ 20/ 21   N/A
MICHIGAN CITY 6N           62 65   40/ 16/ 21   N/A           6/ 7
ST. JOSEPH                 59 60   20/ 10/ 14 1023.0          4/ 7
$$

ILZ025>027-034>036-040-047-049-050-058-095>099-300300-
WEST-CENTRAL ILLINOIS

CITY           SKY/WX    TMP DP  RH WIND       PRES   REMARKS
QUINCY         CLOUDY    66  56  70 NE13      30.22R
GALESBURG*     MOCLDY    63  55  75 N9        30.24S
MACOMB*        PTCLDY    63  55  74 NE12      30.25S
JACKSONVILLE*  CLEAR     61  57  88 N8        30.20S
PITTSFIELD*    CLOUDY    66  57  72 N12       30.21S
$$

ILZ028>032-037-038-041>044-048-051>054-059>061-300300-
CENTRAL ILLINOIS

CITY           SKY/WX    TMP DP  RH WIND       PRES   REMARKS
PONTIAC        CLEAR     61  60  96 N10       30.20S
BLOOMINGTON    CLEAR     60  58  92 N15G22    30.19R
DECATUR        CLOUDY    62  58  86 N10       30.16S
PEORIA         CLEAR     62  58  86 NE10G23   30.21S
LACON*         PTCLDY    60  55  83 N7        30.22S
LINCOLN*       PTCLDY    60  60  97 N8        30.18S
SPRINGFIELD    CLOUDY    61  58  90 N12       30.19R
TAYLORVILLE    CLOUDY    60  58  94 N12       30.16S
$$

ILZ033-039-045-046-055>057-062-063-300300-
EAST-CENTRAL ILLINOIS

CITY           SKY/WX    TMP DP  RH WIND       PRES   REMARKS
CHAMPAIGN      PTCLDY    62  58  86 N13       30.15S
RANTOUL*       PTCLDY    62  60  92 N10       30.16R
MATTOON        PTCLDY    59  54  83 N6        30.13R
PARIS*         PTCLDY    58  55  88 CALM      30.14S
$$

ILZ079-100>102-300300-
SOUTHWEST ILLINOIS

CITY           SKY/WX    TMP DP  RH WIND       PRES   REMARKS
ALTON          CLOUDY    59  59 100 N6        30.18R
BELLEVILLE     CLEAR     60  60  99 N3        30.15R
CAHOKIA*       CLOUDY    62  59  90 N9        30.17S
SPARTA*        CLOUDY    59  58  96 NW3       30.16S
$$

ILZ064>066-069>071-074>076-080>082-084>086-088>090-092>094-300300-
SOUTH-CENTRAL ILLINOIS

CITY           SKY/WX    TMP DP  RH WIND       PRES   REMARKS
CARBONDALE     CLEAR     57  57 100 W3        30.14S
CAIRO*         PTCLDY    57  56  98 W3        30.15S
EFFINGHAM*     MOCLDY    61  60  99 NW5       30.14S
MARION         PTCLDY    59  59 100 CALM      30.15R
MT. VERNON     CLEAR     57  52  82 CALM      30.14S
CENTRALIA*     PTCLDY    60  60  97 NW6       30.14R
SALEM*         MOCLDY    62  58  90 N6        30.15R
METROPOLIS*    PTCLDY    58  56  93 CALM      30.14S
$$

ILZ067-068-072-073-078-083-087-091-300300-
SOUTHEAST ILLINOIS

CITY           SKY/WX    TMP DP  RH WIND       PRES   REMARKS
LAWRENCEVILLE  CLEAR     57  53  86 CALM      30.12R
FLORA*         MOCLDY    61  58  89 NW8       30.12S
FAIRFIELD*       N/A     59  57  94 CALM      30.12R
HARRISBURG*    CLEAR     58  56  96 NW6       30.13S
ROBINSON*      PTCLDY    51  50  95 CALM      30.13R
CARMI*         CLEAR     56  55  97 W7        30.12R
$$

ABBREVIATIONS USED IN REMARKS
   TC - TEMPERATURE IN CELSIUS
  WCI - WIND CHILL INDEX
   HX - HEAT INDEX
  VSB - VISIBILITY
$$




USA.gov is the U.S. government's official web portal to all federal, state and local government web resources and services.